Location: Unspecified
(48.7670°N, 0.0000°E)
Time: 23:21:56
(UTC+00:00)

Altair - Pass Details

Date: 01 July 2019
Orbit: 1501 x 1683 km, 47.2° (Epoch: 19 July)

Event Time Altitude Azimuth Distance (km) Brightness Sun altitude
Rises 16:43:45 0° 216° (SW) 4,638 10.5 30.2°
Reaches altitude 10° 16:46:56 10° 209° (SSW) 3,672 9.9 29.7°
Maximum altitude 16:55:24 42° 143° (SE) 2,088 8.2 28.3°
Drops below altitude 10° 17:04:10 10° 77° (ENE) 3,801 9.1 26.8°
Sets 17:07:31 0° 71° (ENE) 4,814 9.6 26.3°
